Location: Borowce
(50.8255°N, 19.6209°E)
Time: 22:36:02
(UTC+00:00)

Meteor 2-19 Rocket - Pass Details

Date: 19 May 2025
Orbit: 935 x 959 km, 82.5° (Epoch: 16 June)

Event Time Altitude Azimuth Distance (km) Brightness Sun altitude
Exits shadow 22:40:37 33° 177° (S) 1,525 5.0 -19.2°
Maximum altitude 22:43:29 78° 97° (E) 970 4.4 -19.2°
Drops below altitude 10° 22:49:34 10° 13° (NNE) 2,665 8.0 -19.1°
Sets 22:52:03 0° 12° (NNE) 3,611 9.1 -19.1°
